[[{"header":{"parameterUnit":"m.s-1","parameterCategory":2,"la1":30.2992,"la2":30.254,"lo1":-89.0895,"lo2":-89.0443,"dy":0.0025,"dx":0.0025,"nx":19,"ny":19,"refTime":"2026-05-04T03:00:00:Z","depth":"0","parameterNumber":2,"parameterNumberName":"U-component_of_CURRENTS"},"data":[0,0,0,0.2948,0.2949,0.2958,0.2958,0.3007,0.3007,0,0,0,0,0,0,0,0,0,0,0,0.2934,0.2934,0.2948,0.2949,0.2958,0.2958,0.3007,0.3007,0,0,0,0,0,0,0,0,0,0,0,0.2934,0.2934,0.2934,0.2949,0.2958,0.2958,0.3006,0.2987,0,0,0,0,0,0,0,0,0,0,0.2972,0.2961,0.2934,0.2934,0.2949,0.2958,0.2958,0.2986,0.2988,0.3017,0,0.3019,0,0.3027,0.3013,0.3013,0,0,0,0.2936,0.2958,0.2964,0.2934,0.2949,0.2958,0.295,0.2987,0.299,0.3021,0.302,0.3022,0.3028,0.3013,0.3014,0.3146,0.3146,0,0,0.2935,0.2934,0.2961,0.2966,0.2954,0.295,0.2951,0.2988,0.2992,0.302,0.3023,0.3029,0.3014,0.3014,0.3145,0.3146,0,0,0,0.2942,0.2934,0.2937,0.2963,0.2969,0.2951,0.2951,0.299,0.2992,0.3024,0.3029,0.3014,0.3015,0.3144,0.3145,0.3189,0,0,0,0.2941,0.294,0.2937,0.2936,0.2968,0.2977,0.2952,0.2988,0.2993,0.3029,0.3014,0.3016,0.3143,0.3145,0.3186,0.3207,0,0,0,0.2933,0.2939,0.2941,0.2936,0.2948,0.2976,0.2979,0.2989,0.2998,0.3013,0.3016,0.3142,0.3144,0.3183,0.3202,0.3279,0,0,0,0.2931,0.2933,0.294,0.2957,0.2948,0.2987,0.2978,0.3012,0.3029,0.3015,0.3143,0.3145,0.3182,0.3199,0.3276,0.3187,0.3196,0,0,0.2932,0.2933,0.2946,0.2953,0.2983,0.2984,0.3039,0.3058,0.3071,0.3129,0.3131,0.3187,0.3202,0.3279,0.3304,0.3309,0,0,0,0.2946,0.2944,0.296,0.2978,0.3013,0.3054,0.3074,0.3111,0.3174,0.3094,0.3216,0.3225,0.3271,0.3211,0.3217,0.3053,0.3154,0.3154,0.3154,0.2916,0.2942,0.2959,0.2994,0.3035,0.3107,0.3164,0.3221,0.3219,0.3273,0.3282,0.3399,0.3335,0.3338,0.3171,0.3306,0.3306,0.3306,0.3306,0.2894,0.2894,0.2948,0.297,0.3042,0.3099,0.3242,0.3281,0.3407,0.3369,0.3412,0.3286,0.3346,0.3166,0.331,0.3309,0.3309,0.3308,0.3308,0.2846,0.2849,0.2872,0.2918,0.2996,0.3101,0.3237,0.3353,0.3444,0.3505,0.3455,0.3452,0.3277,0.3531,0.3531,0.3532,0.3532,0.3532,0.3533,0.2778,0.2803,0.2804,0.2873,0.2914,0.3032,0.3252,0.3365,0.3483,0.351,0.351,0.3294,0.3468,0.3439,0.354,0.3538,0.3537,0.3537,0.3536,0.2702,0.2721,0.2719,0.2745,0.2843,0.2903,0.3148,0.3339,0.3487,0.3513,0.3313,0.3523,0.3506,0.35,0.3473,0.3576,0.3576,0.3576,0.3576,0.2644,0.2657,0.2626,0.264,0.2716,0.2831,0.2915,0.3075,0.3197,0.3174,0.3239,0.3124,0.3129,0.3084,0.3087,0.3049,0.3044,0.3043,0.3042,0.2594,0.2598,0.2543,0.2557,0.2629,0.2721,0.2692,0.2664,0.2838,0.3007,0.3035,0.3057,0.2873,0.2895,0.281,0.2827,0.2761,0,0]},{"header":{"parameterUnit":"m.s-1","parameterCategory":2,"la1":30.2992,"la2":30.254,"lo1":-89.0895,"lo2":-89.0443,"dy":0.0025,"dx":0.0025,"nx":19,"ny":19,"refTime":"2026-05-04T03:00:00:Z","depth":"0","parameterNumber":3,"parameterNumberName":"V-component_of_CURRENTS"},"data":[0,0,0,0.0418,0.0418,0.041,0.041,0.0397,0.0397,0,0,0,0,0,0,0,0,0,0,0,0.0419,0.0419,0.0418,0.0418,0.041,0.041,0.0397,0.0397,0,0,0,0,0,0,0,0,0,0,0,0.0419,0.0419,0.0419,0.0418,0.041,0.041,0.0397,0.0403,0,0,0,0,0,0,0,0,0,0,0.041,0.0412,0.0419,0.0419,0.0418,0.041,0.041,0.0403,0.0402,0.0401,0,0.0401,0,0.0401,0.0396,0.0396,0,0,0,0.0414,0.0413,0.0413,0.0419,0.0418,0.041,0.0413,0.0403,0.0402,0.04,0.0401,0.04,0.04,0.0396,0.0396,0.0441,0.0442,0,0,0.0415,0.0415,0.0413,0.0412,0.0418,0.0413,0.0412,0.0402,0.0401,0.0401,0.04,0.04,0.0396,0.0396,0.044,0.0441,0,0,0,0.0418,0.0415,0.0416,0.0413,0.0413,0.0413,0.0412,0.0401,0.0402,0.04,0.04,0.0396,0.0396,0.044,0.0441,0.0545,0,0,0,0.0418,0.0418,0.0416,0.0416,0.0413,0.0407,0.0412,0.0403,0.0402,0.04,0.0396,0.0396,0.0439,0.044,0.0541,0.0621,0,0,0,0.0419,0.0418,0.0418,0.0416,0.0415,0.0407,0.0407,0.0402,0.0402,0.0396,0.0396,0.0439,0.044,0.0537,0.0614,0.0683,0,0,0,0.0418,0.0443,0.0418,0.0449,0.0415,0.0456,0.0407,0.0428,0.043,0.0396,0.0439,0.0441,0.0536,0.0609,0.0678,0.0778,0.0809,0,0,0.0457,0.0448,0.047,0.0448,0.0501,0.0457,0.0514,0.0487,0.0448,0.044,0.0441,0.0542,0.0613,0.0682,0.0855,0.0884,0,0,0,0.0487,0.0507,0.0518,0.0538,0.0548,0.0579,0.0546,0.0539,0.0539,0.0454,0.054,0.0582,0.0622,0.0671,0.0694,0.0606,0.0447,0.0447,0.0447,0.0541,0.0555,0.0608,0.0631,0.0656,0.0662,0.069,0.0673,0.0608,0.0627,0.0664,0.0789,0.0842,0.086,0.0767,0.0641,0.0641,0.0642,0.0642,0.0626,0.0668,0.0687,0.0748,0.077,0.0817,0.0835,0.0808,0.0851,0.0766,0.0798,0.0776,0.0892,0.0783,0.0649,0.0647,0.0647,0.0646,0.0645,0.0672,0.07,0.0731,0.082,0.0905,0.0931,0.1063,0.1032,0.0973,0.1014,0.1041,0.104,0.0948,0.1014,0.1015,0.1016,0.1016,0.1017,0.1017,0.071,0.0745,0.0826,0.0914,0.0992,0.1115,0.1212,0.1274,0.127,0.1195,0.1195,0.0995,0.0903,0.0892,0.1028,0.1026,0.1024,0.1023,0.1023,0.0784,0.0795,0.0915,0.0997,0.1195,0.1397,0.1471,0.1608,0.1603,0.161,0.1292,0.1281,0.1264,0.1244,0.1242,0.146,0.146,0.146,0.146,0.0829,0.0846,0.1007,0.1153,0.1353,0.1532,0.1833,0.1888,0.1689,0.1541,0.1419,0.133,0.1316,0.1293,0.1273,0.1266,0.1486,0.1485,0.1485,0.0886,0.093,0.1049,0.1193,0.1424,0.1711,0.2009,0.2082,0.1724,0.147,0.128,0.1279,0.1121,0.1107,0.1042,0.102,0.0998,0,0]}],[{"header":{"parameterUnit":"m.s-1","parameterCategory":2,"la1":30.2992,"la2":30.254,"lo1":-89.0895,"lo2":-89.0443,"dy":0.0025,"dx":0.0025,"nx":19,"ny":19,"refTime":"2026-05-04T03:00:00:Z","depth":"2","parameterNumber":2,"parameterNumberName":"U-component_of_CURRENTS"},"data":[0,0,0,0.2669,0.267,0.2704,0.2704,0.2759,0.276,0,0,0,0,0,0,0,0,0,0,0,0.2649,0.265,0.2669,0.267,0.2704,0.2704,0.2759,0.276,0,0,0,0,0,0,0,0,0,0,0,0.2649,0.2649,0.265,0.267,0.2704,0.2704,0.2759,0.2728,0,0,0,0,0,0,0,0,0,0,0.2692,0.2679,0.2649,0.265,0.267,0.2704,0.2704,0.2726,0.273,0.275,0,0.2759,0,0.277,0.2765,0.2765,0,0,0,0.2659,0.2676,0.2686,0.265,0.2671,0.2704,0.2686,0.2728,0.2732,0.2755,0.2759,0.2762,0.2771,0.2765,0.2766,0.288,0.2881,0,0,0.2657,0.2655,0.2683,0.2689,0.2685,0.2685,0.2687,0.273,0.2737,0.276,0.2763,0.2772,0.2766,0.2767,0.288,0.2881,0,0,0,0.2659,0.2654,0.2662,0.2687,0.2697,0.2686,0.2688,0.2735,0.2738,0.2764,0.2772,0.2766,0.2767,0.2879,0.288,0.2925,0,0,0,0.2657,0.2656,0.2661,0.266,0.2696,0.2717,0.2692,0.2734,0.274,0.2772,0.2766,0.2768,0.2878,0.288,0.2922,0.2939,0,0,0,0.2647,0.2655,0.266,0.266,0.2681,0.2716,0.2721,0.2735,0.2746,0.2765,0.2768,0.2878,0.2879,0.292,0.2935,0.3001,0,0,0,0.2641,0.2648,0.266,0.268,0.2681,0.2722,0.2721,0.2761,0.2782,0.2767,0.2878,0.288,0.2919,0.2932,0.2998,0.2889,0.2895,0,0,0.2644,0.2648,0.2662,0.2673,0.2705,0.2717,0.2771,0.2801,0.2814,0.2861,0.2863,0.2923,0.2935,0.3,0.2985,0.2988,0,0,0,0.2659,0.2661,0.2677,0.2699,0.2736,0.2779,0.2809,0.2845,0.2907,0.2836,0.2945,0.2951,0.2991,0.2919,0.2922,0.2888,0.2888,0.2887,0.2887,0.2636,0.266,0.2679,0.2714,0.2755,0.2829,0.2884,0.2939,0.2943,0.2994,0.3004,0.3105,0.3029,0.303,0.3024,0.3024,0.3024,0.3024,0.3024,0.2619,0.262,0.2672,0.2696,0.2766,0.2825,0.2953,0.2994,0.3107,0.3079,0.3115,0.2989,0.3035,0.3028,0.3028,0.3027,0.3027,0.3026,0.3026,0.2579,0.2582,0.2608,0.2657,0.2732,0.2833,0.2949,0.3056,0.3143,0.3197,0.3134,0.3131,0.313,0.3224,0.3225,0.3225,0.3225,0.3226,0.3226,0.2519,0.2545,0.2552,0.2621,0.266,0.2768,0.2964,0.3054,0.3154,0.3182,0.3181,0.3173,0.3166,0.3143,0.3232,0.3231,0.323,0.323,0.3229,0.2453,0.2474,0.2477,0.2503,0.2587,0.261,0.2834,0.2976,0.3115,0.3123,0.3179,0.3178,0.3157,0.3152,0.3129,0.3209,0.3209,0.3209,0.3209,0.2402,0.2416,0.2393,0.24,0.245,0.2527,0.255,0.266,0.2862,0.2914,0.2926,0.2826,0.2834,0.2789,0.2793,0.276,0.2744,0.2743,0.2742,0.2357,0.2361,0.2314,0.2322,0.2359,0.239,0.2304,0.2218,0.2389,0.2719,0.2801,0.3187,0.3069,0.307,0.3023,0.302,0.2976,0,0]},{"header":{"parameterUnit":"m.s-1","parameterCategory":2,"la1":30.2992,"la2":30.254,"lo1":-89.0895,"lo2":-89.0443,"dy":0.0025,"dx":0.0025,"nx":19,"ny":19,"refTime":"2026-05-04T03:00:00:Z","depth":"2","parameterNumber":3,"parameterNumberName":"V-component_of_CURRENTS"},"data":[0,0,0,0.0283,0.0283,0.0283,0.0283,0.0275,0.0275,0,0,0,0,0,0,0,0,0,0,0,0.0283,0.0283,0.0283,0.0283,0.0283,0.0283,0.0275,0.0275,0,0,0,0,0,0,0,0,0,0,0,0.0283,0.0283,0.0283,0.0283,0.0283,0.0283,0.0275,0.0277,0,0,0,0,0,0,0,0,0,0,0.0278,0.0279,0.0283,0.0283,0.0283,0.0283,0.0283,0.0277,0.0277,0.0274,0,0.0276,0,0.0277,0.0275,0.0275,0,0,0,0.0281,0.0279,0.028,0.0283,0.0284,0.0283,0.0282,0.0277,0.0277,0.0274,0.0276,0.0276,0.0277,0.0275,0.0275,0.0318,0.0318,0,0,0.0281,0.0281,0.028,0.028,0.0285,0.0282,0.0282,0.0277,0.0276,0.0276,0.0276,0.0277,0.0275,0.0275,0.0317,0.0318,0,0,0,0.0283,0.0281,0.0282,0.028,0.0282,0.0282,0.0282,0.0276,0.0277,0.0276,0.0277,0.0275,0.0275,0.0317,0.0318,0.0409,0,0,0,0.0283,0.0282,0.0282,0.0282,0.0282,0.028,0.0282,0.0278,0.0277,0.0277,0.0275,0.0275,0.0316,0.0317,0.0405,0.0476,0,0,0,0.0283,0.0282,0.0283,0.0282,0.0283,0.028,0.028,0.0278,0.0278,0.0275,0.0275,0.0316,0.0317,0.0402,0.0469,0.0527,0,0,0,0.0281,0.0305,0.0283,0.0313,0.0283,0.0324,0.028,0.0302,0.0305,0.0275,0.0316,0.0318,0.0401,0.0465,0.0523,0.059,0.0615,0,0,0.0316,0.0309,0.033,0.0311,0.0361,0.0324,0.0378,0.0356,0.0321,0.0316,0.0317,0.0406,0.0469,0.0526,0.0661,0.0685,0,0,0,0.0345,0.0364,0.0374,0.0395,0.0406,0.0436,0.041,0.0403,0.0404,0.0329,0.0406,0.0443,0.0476,0.0507,0.0526,0.0324,0.0323,0.0323,0.0323,0.0396,0.0409,0.0459,0.0481,0.0506,0.0513,0.0537,0.0522,0.0466,0.0483,0.0515,0.0624,0.0657,0.0672,0.0496,0.0496,0.0497,0.0497,0.0497,0.0474,0.0514,0.0532,0.0589,0.061,0.0656,0.067,0.0645,0.0678,0.0606,0.0632,0.06,0.0699,0.0504,0.0503,0.0502,0.0501,0.0501,0.05,0.0518,0.0544,0.0574,0.0657,0.0736,0.0762,0.0874,0.0843,0.0787,0.082,0.0829,0.0828,0.0693,0.082,0.082,0.0821,0.0822,0.0822,0.0822,0.0554,0.0587,0.0662,0.0744,0.0816,0.0927,0.1006,0.1046,0.1028,0.0963,0.0963,0.0733,0.0723,0.0712,0.0831,0.083,0.0829,0.0828,0.0827,0.0622,0.0634,0.0745,0.0819,0.1,0.1165,0.1225,0.1313,0.1302,0.1294,0.1035,0.1027,0.101,0.0993,0.0989,0.1173,0.1173,0.1173,0.1173,0.0663,0.0679,0.0829,0.0963,0.1138,0.1283,0.1508,0.1519,0.1389,0.1262,0.1258,0.1187,0.1172,0.1157,0.1137,0.1133,0.1355,0.1355,0.1355,0.0714,0.0755,0.0867,0.1,0.1201,0.1428,0.164,0.1627,0.1392,0.1357,0.124,0.1195,0.1076,0.1058,0.1015,0.0991,0.0975,0,0]}],[{"header":{"parameterUnit":"m.s-1","parameterCategory":2,"la1":30.2992,"la2":30.254,"lo1":-89.0895,"lo2":-89.0443,"dy":0.0025,"dx":0.0025,"nx":19,"ny":19,"refTime":"2026-05-04T03:00:00:Z","depth":"4","parameterNumber":2,"parameterNumberName":"U-component_of_CURRENTS"},"data":[0,0,0,0.1813,0.1817,0.1962,0.1963,0.2079,0.208,0,0,0,0,0,0,0,0,0,0,0,0.1767,0.1769,0.1813,0.1817,0.1962,0.1963,0.2079,0.208,0,0,0,0,0,0,0,0,0,0,0,0.1767,0.1768,0.177,0.1817,0.1962,0.1963,0.2079,0.1986,0,0,0,0,0,0,0,0,0,0,0.1853,0.1829,0.1768,0.177,0.1818,0.1962,0.1963,0.1982,0.1991,0.1994,0,0.203,0,0.2057,0.2087,0.2087,0,0,0,0.1814,0.1821,0.1853,0.177,0.182,0.1962,0.1896,0.1988,0.1998,0.2007,0.2032,0.2037,0.2059,0.2087,0.2088,0.2204,0.2204,0,0,0.1806,0.1798,0.1846,0.1861,0.1873,0.1891,0.19,0.1995,0.2015,0.2032,0.204,0.2061,0.2088,0.2089,0.2203,0.2204,0,0,0,0.1785,0.1792,0.1824,0.1855,0.1887,0.1895,0.1906,0.2011,0.2021,0.2041,0.2062,0.2089,0.209,0.2203,0.2203,0.2255,0,0,0,0.178,0.178,0.182,0.1817,0.1886,0.1963,0.192,0.2014,0.2026,0.2061,0.2089,0.2091,0.2202,0.2203,0.2252,0.2259,0,0,0,0.1758,0.1778,0.1798,0.1816,0.188,0.1962,0.1978,0.2018,0.2038,0.2087,0.2091,0.2202,0.2203,0.225,0.2256,0.23,0,0,0,0.1738,0.1765,0.1798,0.1842,0.1879,0.1956,0.1978,0.2057,0.2104,0.2089,0.2202,0.2203,0.2249,0.2254,0.2298,0.2002,0,0,0,0.1749,0.1767,0.179,0.1822,0.1883,0.1935,0.2018,0.2097,0.212,0.2164,0.2167,0.2253,0.2256,0.23,0.2081,0,0,0,0,0.1778,0.1795,0.1821,0.1873,0.1934,0.201,0.2086,0.2131,0.2218,0.2155,0.2265,0.2265,0.2291,0.2112,0.221,0.2209,0.2209,0.2209,0.2209,0.1762,0.1797,0.1839,0.1896,0.196,0.2073,0.2145,0.2219,0.2242,0.2299,0.2316,0.2395,0.2208,0.2334,0.2334,0.2335,0.2335,0.2335,0.2335,0.1754,0.1766,0.1844,0.19,0.1993,0.2081,0.2214,0.2271,0.2383,0.2374,0.2399,0.2189,0.2341,0.2339,0.2339,0.2338,0.2338,0.2337,0.2337,0.1712,0.172,0.1783,0.1874,0.1983,0.2106,0.2201,0.2325,0.2418,0.2465,0.2288,0.2432,0.2417,0.2495,0.2496,0.2496,0.2496,0.2496,0.2496,0.1633,0.169,0.1737,0.1849,0.1914,0.203,0.2214,0.2278,0.2404,0.2306,0.2491,0.2448,0.2443,0.2426,0.25,0.25,0.2499,0.2499,0.2499,0.1555,0.1607,0.1652,0.1712,0.1826,0.1873,0.2084,0.2141,0.2197,0.2178,0.2219,0.2231,0.2184,0.2186,0.2157,0.2155,0.2151,0.2148,0,0.1497,0.1526,0.1568,0.1604,0.1631,0.1758,0.1747,0.1856,0.1978,0.1907,0.2205,0.2248,0.2256,0.22,0.2196,0.2159,0,0,0,0.1449,0.1471,0.1464,0.151,0.1514,0.1566,0.1723,0.1696,0.1961,0.193,0.2059,0.2082,0.2332,0.2512,0.247,0.2464,0.2435,0,0]},{"header":{"parameterUnit":"m.s-1","parameterCategory":2,"la1":30.2992,"la2":30.254,"lo1":-89.0895,"lo2":-89.0443,"dy":0.0025,"dx":0.0025,"nx":19,"ny":19,"refTime":"2026-05-04T03:00:00:Z","depth":"4","parameterNumber":3,"parameterNumberName":"V-component_of_CURRENTS"},"data":[0,0,0,0.0189,0.019,0.0201,0.0201,0.021,0.021,0,0,0,0,0,0,0,0,0,0,0,0.0185,0.0185,0.0189,0.019,0.0201,0.0201,0.021,0.021,0,0,0,0,0,0,0,0,0,0,0,0.0185,0.0185,0.0185,0.019,0.0201,0.0201,0.021,0.0203,0,0,0,0,0,0,0,0,0,0,0.0192,0.019,0.0185,0.0185,0.019,0.0201,0.0201,0.0202,0.0203,0.0204,0,0.0207,0,0.021,0.0211,0.0211,0,0,0,0.0188,0.0189,0.0192,0.0185,0.019,0.0201,0.0196,0.0203,0.0204,0.0205,0.0207,0.0207,0.021,0.0211,0.0211,0.0257,0.0257,0,0,0.0188,0.0187,0.0192,0.0193,0.0194,0.0195,0.0196,0.0203,0.0205,0.0207,0.0208,0.021,0.0211,0.0211,0.0257,0.0257,0,0,0,0.0187,0.0186,0.0189,0.0192,0.0195,0.0196,0.0196,0.0204,0.0205,0.0208,0.021,0.0211,0.0211,0.0256,0.0257,0.0321,0,0,0,0.0186,0.0186,0.0189,0.0188,0.0195,0.0201,0.0197,0.0205,0.0206,0.021,0.0211,0.0211,0.0256,0.0256,0.0319,0.037,0,0,0,0.0184,0.0186,0.0187,0.0188,0.0194,0.0201,0.0202,0.0205,0.0207,0.0211,0.0211,0.0255,0.0256,0.0316,0.0365,0.0399,0,0,0,0.0182,0.02,0.0187,0.0213,0.0194,0.0232,0.0202,0.0226,0.0234,0.0211,0.0256,0.0257,0.0315,0.0362,0.0396,0.039,0,0,0,0.0208,0.0203,0.0221,0.021,0.0253,0.0231,0.0279,0.027,0.0248,0.0251,0.0252,0.032,0.0365,0.0399,0.045,0,0,0,0,0.0231,0.0246,0.0256,0.0277,0.0291,0.032,0.0309,0.0306,0.0314,0.0257,0.0322,0.035,0.0369,0.0355,0.0262,0.0262,0.0261,0.0261,0.0261,0.0265,0.0279,0.0321,0.0344,0.0369,0.0384,0.0405,0.04,0.0363,0.0378,0.0403,0.0479,0.0467,0.0391,0.0392,0.0392,0.0392,0.0392,0.0393,0.0321,0.0352,0.0376,0.0424,0.0451,0.0494,0.051,0.0493,0.0518,0.0471,0.0485,0.0426,0.0399,0.0398,0.0397,0.0396,0.0395,0.0395,0.0395,0.0349,0.0368,0.04,0.0473,0.0546,0.0576,0.0654,0.0639,0.0598,0.0619,0.0588,0.0531,0.0524,0.0616,0.0616,0.0617,0.0617,0.0617,0.0617,0.0364,0.0397,0.0459,0.0536,0.06,0.069,0.0749,0.0766,0.0723,0.0684,0.0643,0.0555,0.0547,0.0537,0.0624,0.0622,0.0622,0.0621,0.0621,0.0398,0.0416,0.0507,0.0572,0.0723,0.0784,0.0845,0.0851,0.0863,0.0821,0.0706,0.07,0.0679,0.0669,0.0661,0.0788,0.0789,0.0789,0,0.0417,0.0434,0.0556,0.0666,0.0787,0.0848,0.0901,0.0912,0.0837,0.0816,0.0832,0.0702,0.0697,0.0671,0.0662,0.0653,0,0,0,0.0442,0.0479,0.0565,0.0679,0.0814,0.0879,0.0919,0.0906,0.0847,0.0852,0.0796,0.0794,0.0719,0.0641,0.0595,0.0587,0.0568,0,0]}]]